Billings, MT

6:50 AM MST on December 16, 2017 (GMT -0700)
Billings Logan International

Weather History for KBIL - November, 2014

Change the Weather History Date:

Sunday, November 30, 2014

  Actual Average Record
Temperature  
Mean Temperature 1 °F 30 °F  
Max Temperature 9 °F 38 °F 65 °F (1999)
Min Temperature -8 °F 21 °F -14 °F (1985)
Degree Days  
Heating Degree Days 64 35  
Month to date heating degree days 1026 876  
Since 1 July heating degree days 1601 1628  
Cooling Degree Days 0 0  
Month to date cooling degree days 0 0  
Year to date cooling degree days 618 636  
Moisture  
Dew Point -7 °F    
Average Humidity 75    
Maximum Humidity 87    
Minimum Humidity 63    
Precipitation  
Precipitation 0.01 in 0.02 in 0.22 in (1980)
Month to date precipitation 0.74 0.63  
Year to date precipitation 13.36 13.16  
Snow  
Snow 0.20 in 0.30 in 3.10 in (2000)
Month to date snowfall 13.2 6.5  
Since 1 July snowfall 13.2 11.7  
Since 1 September snowfall 13.2 11.7  
Snow Depth 4.00 in    
Sea Level Pressure  
Sea Level Pressure 30.43 in    
Wind  
Wind Speed 10 mph (SW)    
Max Wind Speed 21 mph    
Max Gust Speed 26 mph    
Visibility 9 miles    
Events Fog , Snow    
T = Trace of Precipitation, MM = Missing Value Source: NWS Daily Summary

Daily Weather History Graph

Daily Weather History Graph

Search for Another Location

Airport or City:

Trip Planner

Search our weather history database for the weather conditions in past years. The results will help you decide how hot, cold, wet, or windy it might be!

Date:

Astronomy

Nov. 30, 2014 Rise Set
Actual Time 7:33 AM MST 4:31 PM MST
Civil Twilight 7:00 AM MST 5:05 PM MST
Nautical Twilight 6:23 AM MST 5:42 PM MST
Astronomical Twilight 5:47 AM MST 6:18 PM MST
Moon 1:21 PM MST (11/30) 12:48 AM MST (11/30)
Length of Visible Light 10h 05m
Length of Day
8h 57m
Waxing Gibbous, 65% of the Moon is Illuminated
Nov 30
Waxing Gibbous
Dec 6
Full
Dec 14
Last Quarter
Dec 21
New
Dec 28
First Quarter

Hourly Weather History & Observations

Time (MST) Temp. Windchill Dew Point Humidity Pressure Visibility Wind Dir Wind Speed Gust Speed Precip Events Conditions
12:27 AM -4.0 °F -14.6 °F -8.0 °F 83% 29.99 in 1.5 mi South 4.6 mph - 0.01 in Snow Light Snow
12:41 AM -4.0 °F -12.4 °F -9.0 °F 79% 30.01 in 2.0 mi South 3.5 mph - 0.01 in Snow Light Snow
12:53 AM -4.0 °F -16.3 °F -8.0 °F 83% 30.25 in 3.0 mi SSE 5.8 mph - 0.02 in Snow Light Snow
1:53 AM -2.9 °F -13.3 °F -7.1 °F 82% 30.27 in 3.0 mi South 4.6 mph - 0.00 in Snow Light Snow
2:53 AM -4.0 °F -16.3 °F -9.0 °F 79% 30.29 in 9.0 mi SSE 5.8 mph - 0.00 in   Mostly Cloudy
3:53 AM -6.0 °F -16.9 °F -11.0 °F 79% 30.32 in 10.0 mi South 4.6 mph - N/A   Clear
4:53 AM -6.0 °F -14.7 °F -11.0 °F 79% 30.33 in 10.0 mi SSW 3.5 mph - N/A   Clear
5:53 AM -7.1 °F -23.9 °F -11.0 °F 83% 30.35 in 10.0 mi SW 9.2 mph - N/A   Clear
6:53 AM -7.1 °F -28.4 °F -11.0 °F 83% 30.38 in 10.0 mi SW 15.0 mph - N/A   Clear
7:53 AM -5.1 °F -28.4 °F -11.0 °F 76% 30.41 in 10.0 mi WSW 19.6 mph - N/A   Partly Cloudy
8:53 AM -2.9 °F -24.4 °F -9.9 °F 72% 30.43 in 10.0 mi SW 17.3 mph - N/A   Partly Cloudy
9:53 AM -2.9 °F -24.4 °F -9.9 °F 72% 30.46 in 10.0 mi SSW 17.3 mph - N/A   Partly Cloudy
10:53 AM -0.0 °F -19.4 °F -8.0 °F 69% 30.48 in 10.0 mi SW 15.0 mph - N/A   Clear
11:53 AM 3.0 °F -16.1 °F -6.0 °F 66% 30.48 in 10.0 mi SW 16.1 mph - N/A   Clear
12:53 PM 6.1 °F -9.5 °F -4.0 °F 63% 30.48 in 10.0 mi SSW 11.5 mph - N/A   Clear
1:53 PM 8.1 °F -7.7 °F -2.0 °F 64% 30.49 in 10.0 mi SW 12.7 mph - N/A   Clear
2:53 PM 9.0 °F -8.5 °F -2.0 °F 61% 30.51 in 10.0 mi SW 16.1 mph - N/A   Partly Cloudy
3:53 PM 8.1 °F -6.2 °F -2.0 °F 64% 30.54 in 10.0 mi SW 10.4 mph - N/A   Partly Cloudy
4:53 PM 6.1 °F -7.8 °F -2.9 °F 67% 30.56 in 10.0 mi SW 9.2 mph - N/A   Partly Cloudy
5:53 PM 1.0 °F -10.3 °F -6.0 °F 72% 30.59 in 10.0 mi West 5.8 mph - N/A   Clear
6:53 PM 3.9 °F - -2.9 °F 73% 30.59 in 10.0 mi Calm Calm - N/A   Clear
7:53 PM 1.0 °F -10.3 °F -2.9 °F 83% 30.60 in 10.0 mi SW 5.8 mph - N/A   Clear
8:53 PM -0.0 °F -9.9 °F -4.0 °F 83% 30.59 in 10.0 mi SSW 4.6 mph - N/A   Clear
9:53 PM -0.0 °F -9.9 °F -5.1 °F 79% 30.57 in 10.0 mi SSW 4.6 mph - N/A   Clear
10:21 PM -2.0 °F -13.9 °F -4.0 °F 91% 30.30 in 9.0 mi SW 5.8 mph - N/A Fog Partly Cloudy
10:53 PM -0.9 °F -14.1 °F -6.0 °F 79% 30.55 in 10.0 mi WSW 6.9 mph - N/A   Clear
11:53 PM -2.0 °F -16.6 °F -7.1 °F 79% 30.53 in 10.0 mi SW 8.1 mph - N/A   Clear